Terminal Aerodrome Forecast
Issued by NWS El Paso, TX

Home | Current Version | Previous Version | Text Only | Print | Product List | Glossary On
Versions: 1 2 3 4 5 6 7 8 9 10 11 12 13
000
FTUS44 KEPZ 282300 RRA
TAFELP
TAF
KELP 282331Z 2900/2924 25012G22KT P6SM SKC
     FM290200 27008KT P6SM FEW140 FEW250
     FM291600 27010KT P6SM FEW140 SCT250=

USA.gov is the U.S. government's official web portal to all federal, state and local government web resources and services.